Weather History for KLBF - February, 2013

Change the Weather History Date:

Friday, February 15, 2013

  Actual Average Record
Temperature  
Mean Temperature 23 °F 29 °F  
Max Temperature 34 °F 43 °F 67 °F (1946)
Min Temperature 11 °F 15 °F -23 °F (1881)
Degree Days  
Heating Degree Days 42 36  
Month to date heating degree days 477 565  
Since 1 July heating degree days 4432 4585  
Cooling Degree Days 0 0  
Month to date cooling degree days 0 0  
Year to date cooling degree days 0 0  
Moisture  
Dew Point 13 °F    
Average Humidity 64    
Maximum Humidity 92    
Minimum Humidity 36    
Precipitation  
Precipitation T in 0.02 in 0.24 in (1993)
Month to date precipitation 0.47 0.21  
Year to date precipitation 0.71 0.55  
Snow  
Snow T in 0.20 in 3.90 in (1993)
Month to date snowfall 4.4 2.8  
Since 1 July snowfall 13.3 18.4  
Snow Depth 0.00 in    
Sea Level Pressure  
Sea Level Pressure 30.40 in    
Wind  
Wind Speed 8 mph (NW)    
Max Wind Speed 24 mph    
Max Gust Speed 30 mph    
Visibility 10 miles    
Events Snow    
T = Trace of Precipitation, MM = Missing Value Source: NWS Daily Summary

Daily Weather History Graph

Daily Weather History Graph

Search for Another Location

Airport or City:

Trip Planner

Search our weather history database for the weather conditions in past years. The results will help you decide how hot, cold, wet, or windy it might be!

Date:

Astronomy

Feb. 15, 2013 Rise Set
Actual Time 7:36 AM CST 6:17 PM CST
Civil Twilight 7:08 AM CST 6:45 PM CST
Nautical Twilight 6:36 AM CST 7:17 PM CST
Astronomical Twilight 6:04 AM CST 7:49 PM CST
Moon 10:10 AM CST (2/15) No Moon Set
Length of Visible Light 11h 36m
Length of Day
10h 40m
Waxing Crescent, 30% of the Moon is Illuminated
Feb 15
Waxing Crescent
Feb 17
First Quarter
Feb 25
Full
Mar 4
Last Quarter
Mar 11
New

Hourly Weather History & Observations

Time (CST) Temp. Windchill Dew Point Humidity Pressure Visibility Wind Dir Wind Speed Gust Speed Precip Events Conditions
12:53 AM 21.0 °F 14.6 °F 17.1 °F 85% 30.39 in 10.0 mi NW 4.6 mph - N/A   Mostly Cloudy
1:53 AM 23.0 °F 15.8 °F 19.0 °F 85% 30.38 in 10.0 mi NW 5.8 mph - N/A   Overcast
2:15 AM 24.8 °F 19.1 °F 21.2 °F 86% 30.30 in 9.0 mi NW 4.6 mph - 0.00 in Snow Light Snow
2:53 AM 23.0 °F 17.0 °F 19.9 °F 88% 30.38 in 10.0 mi WNW 4.6 mph - 0.00 in   Mostly Cloudy
3:00 AM 21.2 °F 13.6 °F 17.6 °F 86% 30.30 in 10.0 mi WNW 5.8 mph - N/A   Scattered Clouds
3:53 AM 18.0 °F 11.1 °F 15.1 °F 88% 30.39 in 10.0 mi WSW 4.6 mph - N/A   Clear
4:53 AM 17.1 °F 6.6 °F 12.9 °F 84% 30.40 in 10.0 mi West 8.1 mph - N/A   Clear
5:53 AM 15.1 °F 5.2 °F 12.0 °F 88% 30.43 in 10.0 mi West 6.9 mph - N/A   Clear
6:53 AM 15.1 °F 5.2 °F 10.9 °F 84% 30.43 in 10.0 mi WNW 6.9 mph - N/A   Clear
7:53 AM 15.1 °F 6.4 °F 12.0 °F 88% 30.42 in 10.0 mi West 5.8 mph - N/A   Clear
8:53 AM 19.0 °F 13.9 °F 14.0 °F 81% 30.43 in 10.0 mi NW 3.5 mph - N/A   Clear
9:53 AM 24.1 °F 15.2 °F 17.1 °F 75% 30.41 in 10.0 mi West 8.1 mph - N/A   Clear
10:53 AM 26.1 °F 15.6 °F 17.1 °F 69% 30.42 in 10.0 mi West 11.5 mph - N/A   Mostly Cloudy
11:53 AM 30.0 °F 18.3 °F 16.0 °F 56% 30.42 in 10.0 mi NW 17.3 mph 27.6 mph N/A   Overcast
12:53 PM 32.0 °F 20.8 °F 15.1 °F 50% 30.40 in 10.0 mi WNW 17.3 mph 24.2 mph N/A   Overcast
1:53 PM 34.0 °F 24.6 °F 10.9 °F 38% 30.38 in 10.0 mi NNW 13.8 mph 25.3 mph N/A   Overcast
2:53 PM 32.0 °F 20.5 °F 9.0 °F 38% 30.38 in 10.0 mi NNW 18.4 mph 25.3 mph N/A   Mostly Cloudy
3:53 PM 30.9 °F 18.7 °F 9.0 °F 40% 30.40 in 10.0 mi NNW 19.6 mph 29.9 mph N/A   Overcast
4:53 PM 30.0 °F 19.1 °F 10.0 °F 43% 30.42 in 10.0 mi North 15.0 mph 23.0 mph N/A   Mostly Cloudy
5:53 PM 28.0 °F 16.1 °F 8.1 °F 43% 30.43 in 10.0 mi NNW 16.1 mph 21.9 mph N/A   Partly Cloudy
6:53 PM 23.0 °F 17.0 °F 9.0 °F 55% 30.45 in 10.0 mi North 4.6 mph - N/A   Clear
7:53 PM 18.0 °F 9.8 °F 9.0 °F 68% 30.45 in 10.0 mi WNW 5.8 mph - N/A   Clear
8:53 PM 16.0 °F - 10.0 °F 77% 30.44 in 10.0 mi Calm Calm - N/A   Clear
9:53 PM 15.1 °F - 9.0 °F 77% 30.43 in 10.0 mi Calm Calm - N/A   Clear
10:53 PM 12.9 °F - 8.1 °F 81% 30.40 in 10.0 mi Calm Calm - N/A   Clear
11:53 PM 14.0 °F - 10.0 °F 84% 30.38 in 10.0 mi Calm Calm - N/A   Clear